sat.trackr.live / text

‹ back to catalog

STARLINK-30793

NORAD 58185 · 2023-167L

PAYLOAD ACTIVE UNKNOWN

§ Identity

Operator
Country
US
Launch date
2023-10-30
Launch site
AFETR
Launch vehicle
Mass (kg)
RCS (m²)

Purposes: comms

External: N2YO · Heavens-Above · Gunter

§ Orbital elements

Epoch: 2026-05-25T04:22:31.146816Z

Period
94.27 min
Inclination
43.0040°
Eccentricity
0.0001469
Mean motion
15.27583582 rev/d
Perigee alt
482.0 km
Apogee alt
484.0 km
Semi-major
6,861.2 km
B*
1.1094e-4
RAAN
71.4041°
Arg perigee
267.5907°
Mean anomaly
92.4776°
Rev number
14,268

§ Raw data

STARLINK-307931 58185U 23167L   26145.18230494  .00002792  00000+0  11094-3 0  99922 58185  43.0040  71.4041 0001469 267.5907  92.4776 15.27583582142685

JSON: /api/v1/satellites/58185 · /tle

For live sub-satellite position, see the globe view (requires WebGL).

§ Visibility from observer

Set your observer location to see the next 7 days of passes ≥ 10°. The values pass through the URL so the page stays shareable.

No JS? Fill the form by hand. The geolocation button needs JavaScript.